User: anonymous   Login
Location: Unspecified
(0.0000°N, 0.0000°E)
Time: 03:40:34
(UTC+00:00)
Language:

OFEQ 11 - Orbit

View from above orbital plane
View from above orbital plane
View from above satellite
View from above satellite

Ground track
Ground track

The orbit data is extracted from the following two-line orbital elements,

1 41759U 16056A   17142.08021492 0.00016000  00000-0  32742-3 0    06
2 41759 141.8468  48.4270 0081281 327.1376  32.8616 15.41550826    07
Epoch (UTC): 22 May 2017 01:55:30
Eccentricity: 0.0081281
inclination: 141.8468°
perigee height: 386 km
apogee height: 497 km
right ascension of ascending node: 48.4270°
argument of perigee: 327.1376°
revolutions per day: 15.41550826
mean anomaly at epoch: 32.8616°
orbit number at epoch: 0

The dashed part of the orbit path shows where the satellite is in the earth's shadow,  

DLR